Tracking 33199 objects as of 16-Feb-2026
HD Live streaming from Space Station
objects crossing your sky now

NOAA 16 DEB

Track NOAA 16 DEB now!
10-day predictions


NORAD ID: 42428
Int'l Code: 2000-055TY
Perigee: 787.7 km
Apogee: 823.2 km
Inclination: 99.0 °
Period: 100.8 minutes
Semi major axis: 7176 km
RCS: Unknown
Launch date: September 21, 2000
Source: United States (US)
Launch site: AIR FORCE WESTERN TEST RANGE (AFWTR)

Note: This is SATELLITE DEBRIS
Your satellite tracking list
Your tracking list is empty




NASA's NSSDC Master Catalog

Two Line Element Set (TLE):
1 42428U 00055TY  26046.62011039  .00002463  00000-0  10074-2 0  9999
2 42428  98.9517 186.9956 0024782 220.1898 139.7450 14.28030530473434
Source of the keplerian elements: AFSPC